Weather History for Inverness, FL

Change the Weather History Date:

Wednesday, February 22, 2012

  Actual Average (KOCF) Record (KOCF)
Temperature  
Mean Temperature 64 °F -  
Max Temperature 78 °F 71 °F 84 °F (1997)
Min Temperature 50 °F 47 °F 33 °F (1999)
Degree Days  
Heating Degree Days 1    
Growing Degree Days 14 (Base 50)    
Moisture  
Dew Point 58 °F    
Average Humidity 87    
Maximum Humidity 100    
Minimum Humidity 51    
Precipitation  
Precipitation 0.78 in - - ()
Sea Level Pressure  
Sea Level Pressure 30.03 in    
Wind  
Wind Speed 2 mph ()    
Max Wind Speed 14 mph    
Max Gust Speed 18 mph    
Visibility 9.2 miles    
Events Rain , Thunderstorm    
Averages and records for this station are not official NWS values.
T = Trace of Precipitation, MM = Missing Value Source: Averaged Metar Reports

Daily Weather History Graph

Daily Weather History Graph

Search for Another Location

Airport:

Trip Planner

Search our weather history database for the weather conditions in past years. The results will help you decide how hot, cold, wet, or windy it might be!

Date:

Astronomy

Feb. 22, 2012 Rise Set
Actual Time 7:01 AM EST 6:24 PM EST
Civil Twilight 6:37 AM EST 6:48 PM EST
Nautical Twilight 6:10 AM EST 7:15 PM EST
Astronomical Twilight 5:42 AM EST 7:43 PM EST
Moon 7:07 AM EST (2/22) 7:19 PM EST (2/22)
Length of Visible Light 12h 10m
Length of Day
11h 22m
New Moon, 1% of the Moon is Illuminated
Feb 22
New Moon
Feb 29
First Quarter
Mar 8
Full
Mar 14
Last Quarter
Mar 22
New

Hourly Weather History & Observations

Time (EST) Temp. Dew Point Humidity Pressure Visibility Wind Dir Wind Speed Gust Speed Precip Events Conditions
12:15 AM 53.6 °F 51.8 °F 94% 30.13 in 10.0 mi Calm Calm - N/A   Clear
12:35 AM 53.6 °F 51.8 °F 94% 30.12 in 10.0 mi Calm Calm - N/A   Clear
12:55 AM 53.6 °F 51.8 °F 94% 30.12 in 10.0 mi Calm Calm - N/A   Clear
1:15 AM 53.6 °F 51.8 °F 94% 30.12 in 10.0 mi Calm Calm - N/A   Clear
1:35 AM 53.6 °F 53.6 °F 100% 30.11 in 10.0 mi Calm Calm - N/A   Clear
1:55 AM 53.6 °F 53.6 °F 100% 30.11 in 10.0 mi Calm Calm - N/A   Clear
2:15 AM 53.6 °F 53.6 °F 100% 30.11 in 10.0 mi Calm Calm - N/A   Clear
2:35 AM 53.6 °F 51.8 °F 94% 30.10 in 10.0 mi Calm Calm - N/A   Clear
2:55 AM 51.8 °F 51.8 °F 100% 30.10 in 10.0 mi Calm Calm - N/A   Clear
3:15 AM 51.8 °F 51.8 °F 100% 30.09 in 10.0 mi Calm Calm - N/A   Clear
3:35 AM 51.8 °F 50.0 °F 94% 30.08 in 10.0 mi Calm Calm - N/A   Clear
3:55 AM 50.0 °F 50.0 °F 100% 30.08 in 7.0 mi Calm Calm - N/A   Clear
4:15 AM 51.8 °F 51.8 °F 100% 30.08 in 10.0 mi Calm Calm - N/A   Clear
4:35 AM 51.8 °F 50.0 °F 94% 30.08 in 10.0 mi Calm Calm - N/A   Clear
4:55 AM 51.8 °F 50.0 °F 94% 30.08 in 10.0 mi Calm Calm - N/A   Clear
5:15 AM 50.0 °F 50.0 °F 100% 30.08 in 10.0 mi Calm Calm - N/A   Clear
5:35 AM 50.0 °F 50.0 °F 100% 30.09 in 10.0 mi Calm Calm - N/A   Clear
5:55 AM 50.0 °F 50.0 °F 100% 30.09 in 10.0 mi Calm Calm - N/A   Scattered Clouds
6:15 AM 51.8 °F 50.0 °F 94% 30.09 in 10.0 mi Calm Calm - N/A   Scattered Clouds
6:35 AM 50.0 °F 50.0 °F 100% 30.09 in 10.0 mi Calm Calm - N/A   Scattered Clouds
6:55 AM 50.0 °F 50.0 °F 100% 30.10 in 10.0 mi Calm Calm - N/A   Mostly Cloudy
7:15 AM 51.8 °F 50.0 °F 94% 30.10 in 10.0 mi Calm Calm - N/A   Mostly Cloudy
7:35 AM 51.8 °F 50.0 °F 94% 30.10 in 10.0 mi Calm Calm - N/A   Scattered Clouds
7:55 AM 51.8 °F 51.8 °F 100% 30.11 in 10.0 mi Calm Calm - N/A   Scattered Clouds
8:15 AM 53.6 °F 53.6 °F 100% 30.11 in 10.0 mi Calm Calm - N/A   Scattered Clouds
8:35 AM 55.4 °F 53.6 °F 94% 30.11 in 10.0 mi Calm Calm - N/A   Mostly Cloudy
8:55 AM 60.8 °F 55.4 °F 82% 30.11 in 10.0 mi Calm Calm - N/A   Overcast
9:15 AM 62.6 °F 57.2 °F 82% 30.11 in 10.0 mi Calm Calm - N/A   Overcast
9:35 AM 64.4 °F 57.2 °F 77% 30.10 in 10.0 mi SSE 4.6 mph - N/A   Mostly Cloudy
9:55 AM 68.0 °F 59.0 °F 73% 30.11 in 10.0 mi SE 3.5 mph - N/A   Scattered Clouds
10:15 AM 69.8 °F 59.0 °F 68% 30.10 in 10.0 mi SSW 3.5 mph - N/A   Clear
10:35 AM 71.6 °F 60.8 °F 69% 30.10 in 10.0 mi WSW 5.8 mph - N/A   Mostly Cloudy
10:55 AM 73.4 °F 59.0 °F 61% 30.09 in 10.0 mi SW 3.5 mph - N/A   Overcast
11:15 AM 73.4 °F 59.0 °F 61% 30.08 in 10.0 mi WSW 4.6 mph - N/A   Overcast
11:55 AM 77.0 °F 60.8 °F 57% 30.06 in 10.0 mi West 11.5 mph 17.3 mph N/A   Overcast
12:15 PM 77.0 °F 60.8 °F 57% 30.04 in 10.0 mi SW 5.8 mph - N/A   Overcast
12:35 PM 77.0 °F 59.0 °F 54% 30.03 in 10.0 mi West 5.8 mph - N/A   Overcast
12:55 PM 75.2 °F 60.8 °F 61% 30.02 in 10.0 mi WSW 3.5 mph - N/A   Overcast
1:15 PM 78.8 °F 60.8 °F 54% 30.00 in 10.0 mi SW 6.9 mph - N/A   Overcast
1:35 PM 77.0 °F 60.8 °F 57% 29.98 in 10.0 mi WSW 8.1 mph - N/A   Overcast
1:55 PM 77.0 °F 59.0 °F 54% 29.97 in 10.0 mi SW 5.8 mph - N/A   Overcast
2:15 PM 78.8 °F 59.0 °F 51% 29.96 in 10.0 mi SW 12.7 mph 17.3 mph N/A   Mostly Cloudy
2:35 PM 77.0 °F 60.8 °F 57% 29.94 in 10.0 mi SW 8.1 mph - N/A   Mostly Cloudy
2:55 PM 77.0 °F 60.8 °F 57% 29.94 in 10.0 mi SW 8.1 mph - N/A   Mostly Cloudy
3:15 PM 77.0 °F 60.8 °F 57% 29.93 in 10.0 mi West 5.8 mph - N/A   Mostly Cloudy
3:35 PM 73.4 °F 62.6 °F 69% 29.93 in 10.0 mi WSW 4.6 mph - N/A Rain Light Rain
3:55 PM 73.4 °F 62.6 °F 69% 29.93 in 10.0 mi WSW 3.5 mph - N/A   Overcast
4:15 PM 69.8 °F 64.4 °F 83% 29.95 in 2.5 mi NW 3.5 mph - 0.07 in Rain , Thunderstorm Heavy Thunderstorms and Rain
4:35 PM 66.2 °F 64.4 °F 94% 29.98 in 1.0 mi West 8.1 mph 18.4 mph 0.41 in Rain , Thunderstorm Heavy Thunderstorms and Rain
4:55 PM 66.2 °F 64.4 °F 94% 29.97 in 4.0 mi SW 4.6 mph - 0.47 in Rain , Thunderstorm Thunderstorms and Rain
5:15 PM 66.2 °F 64.4 °F 94% 29.96 in 7.0 mi SSW 3.5 mph - 0.02 in Rain , Thunderstorm Thunderstorms and Rain
5:35 PM 66.2 °F 64.4 °F 94% 29.95 in 10.0 mi SSW 4.6 mph - 0.03 in Rain , Thunderstorm Rain
5:55 PM 66.2 °F 64.4 °F 94% 29.92 in 10.0 mi South 5.8 mph - 0.04 in   Mostly Cloudy
6:15 PM 64.4 °F 64.4 °F 100% 29.93 in 10.0 mi South 4.6 mph - N/A Thunderstorm Unknown
6:35 PM 64.4 °F 64.4 °F 100% 29.95 in 10.0 mi Calm Calm - N/A Thunderstorm Overcast
6:55 PM 64.4 °F 64.4 °F 100% 30.00 in 7.0 mi WSW 4.6 mph - 0.01 in Rain , Thunderstorm Thunderstorms and Rain
7:15 PM 64.4 °F 64.4 °F 100% 29.96 in 7.0 mi South 13.8 mph - 0.01 in Rain , Thunderstorm Light Thunderstorms and Rain
7:35 PM 64.4 °F 62.6 °F 94% 29.95 in 7.0 mi SSW 9.2 mph 17.3 mph 0.03 in Rain , Thunderstorm Light Thunderstorms and Rain
7:55 PM 62.6 °F 62.6 °F 100% 29.95 in 5.0 mi SSW 5.8 mph - 0.09 in Rain Heavy Rain
8:15 PM 62.6 °F 62.6 °F 100% 29.94 in 4.0 mi Calm Calm - 0.13 in Rain Rain
8:35 PM 64.4 °F 62.6 °F 94% 29.95 in 7.0 mi SSW 5.8 mph - 0.15 in Rain Heavy Rain
8:55 PM 62.6 °F 62.6 °F 100% 29.95 in 10.0 mi SW 4.6 mph - 0.17 in   Overcast
9:15 PM 62.6 °F 62.6 °F 100% 29.95 in 10.0 mi South 6.9 mph - N/A Rain Rain
9:35 PM 62.6 °F 62.6 °F 100% 29.95 in 10.0 mi South 9.2 mph - N/A Rain Rain
9:55 PM 62.6 °F 62.6 °F 100% 29.95 in 10.0 mi South 9.2 mph - N/A   Overcast
10:15 PM 62.6 °F 62.6 °F 100% 29.94 in 10.0 mi South 5.8 mph - N/A   Overcast
10:35 PM 64.4 °F 62.6 °F 94% 29.94 in 10.0 mi SSW 4.6 mph - N/A   Overcast
10:55 PM 64.4 °F 64.4 °F 100% 29.94 in 10.0 mi SSW 8.1 mph - N/A   Overcast
11:15 PM 66.2 °F 64.4 °F 94% 29.94 in 10.0 mi South 6.9 mph - N/A   Overcast
11:55 PM 68.0 °F 66.2 °F 94% 29.94 in 7.0 mi Calm Calm - N/A   Overcast